User: anonymous   Login
Location: Arapaho Elementary School
(32.9607°N, 96.7625°W)
Time: 13:56:41
(UTC+00:00)
Language:

H-2A R/B - Orbit

View from above orbital plane
View from above orbital plane
View from above satellite
View from above satellite

Ground track
Ground track

The orbit data is extracted from the following two-line orbital elements,

1 38341U 12025E   22138.14706488  .00001878  00000-0  22343-3 0  9994
2 38341  98.5087 351.3996 0055596 143.1685 217.3368 14.84651228541238
Epoch (UTC): 18 May 2022 03:31:46
Eccentricity: 0.0055596
inclination: 98.5087°
perigee height: 576 km
apogee height: 653 km
right ascension of ascending node: 351.3996°
argument of perigee: 143.1685°
revolutions per day: 14.84651228
mean anomaly at epoch: 217.3368°
orbit number at epoch: 54123

The dashed part of the orbit path shows where the satellite is in the earth's shadow,  

DLR